www.pogodaiklimat.ru

Погода и климат >> Архив погоды >> Норвегия >> Krakenes


ПОГОДА в Krakenes

  • Прогноз погоды в Krakenes
  • Монитор погоды в Krakenes
  • Климат города

АРХИВ ПОГОДЫ в Krakenes

Время (UTC), дата Ветер
(напр.,м/с)
 
Видим.   Явления Облачность Т
(С)
Тd
(С)
f
(%)
Тe
(С)
Тes
(С)
Комфортность P
(гПа)
Po
(гПа)
Тmin
(С)
Tmax
(С)
R
(мм)
R24
(мм)
S
(см)
17 20.06 ЮЗ 8
{12}
н/о н/о +8.6 +5 +5 1016.9 1012.0
16 20.06 ЮЗ 7
{12}
н/о н/о +9.5 +7 +7 1016.6 1011.7
18 20.06 З 8
{13}
н/о н/о +9.5 +6 +6 1017.3 1012.4 +8.3 +10.4
19 20.06 З 10
{12}
н/о н/о +8.3 +4 +4 1017.5 1012.6
20 20.06 З 7
{10}
н/о н/о +8.9 +6 +6 1017.9 1013.0
21 20.06 З 7
{11}
н/о н/о +8.8 +6 +6 1017.9 1013.0
23 20.06 З 8
{10}
н/о н/о +8.5 +5 +5 1018.1 1013.2
22 20.06 З 7
{10}
н/о н/о +8.6 +6 +6 1018.2 1013.3
00 21.06 З 7
{12}
н/о н/о +8.7 +6 +6 1018.5 1013.6
01 21.06 З 7
{10}
н/о н/о +7.3 +4 +4 1018.7 1013.8
02 21.06 З 5
{7}
н/о н/о +7.7 +5 +5 1018.5 1013.6
03 21.06 З 3
{6}
н/о н/о +7.9 +7 +7 1018.3 1013.4
05 21.06 ЮЗ 2
{5}
н/о н/о +7.6 +7 +7 1018.5 1013.6
04 21.06 З 2
{6}
н/о н/о +8.0 +7 +7 1018.4 1013.5
06 21.06 Ю 4
{10}
н/о н/о +8.1 +6 +6 1018.5 1013.6 +7.2 +9.5
07 21.06 Ю 4
{6}
н/о н/о +8.3 +6 +6 1018.4 1013.5
08 21.06 Ю 5
{6}
н/о н/о +8.8 +7 +7 1018.3 1013.4
09 21.06 Ю 5
{6}
н/о н/о +9.2 +7 +7 1018.3 1013.4
11 21.06 ЮЗ 4
{7}
н/о н/о +9.9 +8 +8 1018.1 1013.2
10 21.06 ЮЗ 5
{7}
н/о н/о +9.4 +7 +7 1018.1 1013.2
12 21.06 ЮЗ 5
{7}
н/о н/о +10.2 1018.1 1013.2
13 21.06 ЮЗ 4
{6}
н/о н/о +10.6 +9 +9 1017.4 1012.6
14 21.06 ЮЗ 3
{4}
н/о н/о +11.1 +10 +10 1016.9 1012.1
15 21.06 ЮЗ 3
{4}
н/о н/о +10.4 +9 +9 1016.4 1011.6
17 21.06 З 2
{3}
н/о н/о +10.4 +10 +10 1015.6 1010.8
16 21.06 СЗ 1
{3}
н/о н/о +11.8 +13 +13 1015.9 1011.1
18 21.06 СЗ 1
{6}
н/о н/о +10.4 +11 +11 1015.2 1010.4 +8.1 +12.3
19 21.06 СВ 2
{3}
н/о н/о +10.1 +10 +10 1014.6 1009.8
20 21.06 В 3
{3}
н/о н/о +9.9 +9 +9 1013.7 1008.9
21 21.06 СВ 2
{4}
н/о н/о +9.9 +10 +10 1013.4 1008.6
23 21.06 В 3
{4}
н/о н/о +9.9 +9 +9 1012.5 1007.7
22 21.06 В 4
{5}
н/о н/о +10.0 +8 +8 1013.0 1008.2
00 22.06 ЮЗ 1
{5}
н/о н/о +10.2 +11 +11 1012.1 1007.3
01 22.06 В 2
{2}
н/о н/о +9.8 +9 +9 1011.2 1006.4
02 22.06 В 4
{5}
н/о н/о +9.6 +8 +8 1010.2 1005.4
03 22.06 В 4
{5}
н/о н/о +10.0 +8 +8 1009.7 1004.9
05 22.06 В 4
{5}
н/о н/о +10.5 +9 +9 1008.6 1003.8
04 22.06 В 4
{4}
н/о н/о +10.0 +8 +8 1009.1 1004.3
06 22.06 В 4
{5}
н/о н/о +10.7 +9 +9 1008.2 1003.4 +9.5 +10.7
07 22.06 В 3
{5}
н/о н/о +11.0 +10 +10 1007.8 1003.0
08 22.06 В 4
{5}
н/о н/о +11.4 +10 +10 1007.4 1002.6
09 22.06 В 3
{4}
н/о н/о +11.5 +11 +11 1007.0 1002.2
11 22.06 В 2
{3}
н/о н/о +12.5 +12 +12 1006.8 1002.0
10 22.06 В 2
{5}
н/о н/о +12.4 +12 +12 1006.8 1002.0
12 22.06 В 2
{5}
н/о н/о +12.3 +12 +12 1006.7 1001.9
13 22.06 ЮВ 1
{3}
н/о н/о +12.4 +13 +13 1006.7 1001.9
14 22.06 штиль 0
{2}
н/о н/о +12.7 +13 +13 1006.5 1001.7
15 22.06 В 3
{5}
н/о н/о +11.9 +11 +11 1006.0 1001.2
17 22.06 Ю 4
{8}
н/о н/о +13.4 +12 +12 1005.5 1000.8
16 22.06 Ю 2 н/о н/о +13.3 1005.8 1001.1
18 22.06 Ю 8
{10}
н/о н/о +13.2 +11 +11 1005.3 1000.6 +10.6 +13.5
19 22.06 ЮЗ 9
{11}
н/о н/о +11.7 +9 +9 1005.6 1000.8
20 22.06 ЮЗ 6
{8}
н/о н/о +10.9 +9 +9 1005.7 1000.9
21 22.06 Ю 4
{6}
н/о н/о +10.9 +10 +10 1005.7 1000.9
23 22.06 Ю 5
{6}
н/о н/о +11.1 +9 +9 1005.4 1000.6
22 22.06 Ю 5
{6}
н/о н/о +10.9 +9 +9 1005.4 1000.6
00 23.06 Ю 4
{11}
н/о н/о +10.4 +9 +9 1005.2 1000.4
01 23.06 Ю 4
{6}
н/о н/о +10.3 +9 +9 1005.0 1000.2
02 23.06 ЮЗ 5
{7}
н/о н/о +10.5 +9 +9 1004.7 999.9
03 23.06 Ю 3
{5}
н/о н/о +10.6 +10 +10 1004.4 999.6
05 23.06 Ю 3
{5}
н/о н/о +10.3 +9 +9 1003.5 998.7
04 23.06 ЮЗ 3
{5}
н/о н/о +10.4 +9 +9 1004.3 999.5
06 23.06 ЮЗ 4
{7}
н/о н/о +10.1 +9 +9 1003.1 998.3 +10.0 +13.2
07 23.06 Ю 5
{7}
н/о н/о +10.3 +8 +8 1002.9 998.1
08 23.06 В 4
{6}
н/о н/о +10.5 +9 +9 1002.3 997.5
09 23.06 ЮВ 1
{4}
н/о н/о +10.9 +12 +12 1002.5 997.7
11 23.06 Ю 7
{13}
н/о н/о +11.8 +10 +10 1001.4 996.7
10 23.06 Ю 11
{12}
н/о н/о +11.2 +8 +8 1001.7 996.9
12 23.06 Ю 7
{13}
н/о н/о +12.1 +10 +10 1001.1 996.4
13 23.06 Ю 10
{14}
н/о н/о +11.3 +8 +8 1000.4 995.6
14 23.06 Ю 9
{13}
н/о н/о +12.5 +10 +10 999.8 995.1
15 23.06 Ю 9
{12}
н/о н/о +13.2 +11 +11 999.3 994.6
17 23.06 Ю 10
{15}
н/о н/о +13.0 +11 +11 997.9 993.2
16 23.06 Ю 9
{14}
н/о н/о +12.9 +11 +11 998.6 993.9
18 23.06 Ю 11
{16}
н/о н/о +12.4 +10 +10 997.7 993.0 +10.0 +13.4
19 23.06 Ю 12
{20}
н/о н/о +11.7 +8 +8 998.2 993.5
20 23.06 ЮЗ 11
{16}
н/о н/о +11.6 +9 +9 998.8 994.1
21 23.06 Ю 14
{15}
н/о н/о +11.6 +8 +8 998.8 994.1
23 23.06 Ю 13
{15}
н/о н/о +11.4 +8 +8 999.8 995.1
22 23.06 ЮЗ 13
{16}
н/о н/о +11.4 +8 +8 999.3 994.6
00 24.06 Ю 13
{20}
н/о н/о +11.4 +8 +8 999.6 994.9
01 24.06 Ю 15
{17}
н/о н/о +11.3 +8 +8 999.2 994.5
02 24.06 Ю 15
{17}
н/о н/о +11.3 +8 +8 998.6 993.9
03 24.06 Ю 16
{18}
н/о н/о +11.4 +8 +8 998.2 993.5
05 24.06 Ю 11
{18}
н/о н/о +11.5 +8 +8 997.6 992.9
04 24.06 Ю 13 н/о н/о +11.5 997.9 993.2
06 24.06 Ю 15
{19}
н/о н/о +11.5 +8 +8 996.9 992.2 +11.0 +12.4
07 24.06 Ю 12
{21}
н/о н/о +9.1 +5 +5 997.6 992.8
08 24.06 Ю 10
{16}
н/о н/о +10.3 +7 +7 997.5 992.7
09 24.06 Ю 13
{16}
н/о н/о +10.5 +7 +7 997.1 992.4
11 24.06 Ю 9
{14}
н/о н/о +11.3 +9 +9 997.0 992.3
10 24.06 Ю 10
{15}
н/о н/о +10.8 +8 +8 997.1 992.4
12 24.06 Ю 10
{21}
н/о н/о +11.0 +8 +8 996.5 991.8
13 24.06 Ю 15
{19}
н/о н/о +11.1 +7 +7 996.2 991.5
14 24.06 Ю 14
{17}
н/о н/о +11.7 +8 +8 996.2 991.5
15 24.06 Ю 15
{18}
н/о н/о +11.6 +8 +8 995.7 991.0
17 24.06 Ю 15
{20}
н/о н/о +11.6 +8 +8 995.1 990.4
16 24.06 Ю 13
{22}
н/о н/о +10.8 +7 +7 995.6 990.9
18 24.06 Ю 10
{22}
н/о н/о +11.4 +8 +8 994.9 990.2 +8.2 +11.8
19 24.06 Ю 11
{16}
н/о н/о +11.7 +9 +9 994.2 989.5
20 24.06 Ю 8
{16}
н/о н/о +11.4 +9 +9 994.3 989.6
21 24.06 ЮВ 5
{18}
н/о н/о +10.3 +8 +8 994.0 989.3
23 24.06 ЮВ 5
{12}
н/о н/о +10.2 +8 +8 992.9 988.2
22 24.06 ЮВ 6
{16}
н/о н/о +9.8 +7 +7 993.5 988.8
00 25.06 ЮВ 6
{18}
н/о н/о +10.1 +8 +8 992.2 987.5
01 25.06 В 6
{15}
н/о н/о +9.6 +7 +7 991.5 986.8
02 25.06 ЮВ 6
{11}
н/о н/о +10.3 +8 +8 991.2 986.5
03 25.06 В 6
{12}
н/о н/о +10.3 +8 +8 990.4 985.7
05 25.06 В 4
{9}
н/о н/о +11.2 +10 +10 990.0 985.3
04 25.06 В 7
{11}
н/о н/о +10.6 +8 +8 990.0 985.3
06 25.06 В 3
{15}
н/о н/о +11.4 +11 +11 990.1 985.4 +9.6 +11.7
07 25.06 В 3
{5}
н/о н/о +10.7 +10 +10 990.5 985.8
08 25.06 СВ 4
{6}
н/о н/о +10.1 +9 +9 991.0 986.3
09 25.06 СВ 4
{6}
н/о н/о +11.4 +10 +10 991.3 986.6
11 25.06 СВ 5
{7}
н/о н/о +11.9 +10 +10 992.1 987.4
10 25.06 СВ 5
{6}
н/о н/о +11.4 +10 +10 991.7 987.0
12 25.06 С 6
{7}
н/о н/о +13.1 +11 +11 992.3 987.6
13 25.06 С 11
{14}
н/о н/о +12.2 +9 +9 992.1 987.4
14 25.06 С 10
{16}
н/о н/о +11.9 +9 +9 992.8 988.1
15 25.06 С 13
{18}
н/о н/о +11.3 +8 +8 993.3 988.6
17 25.06 С 12
{18}
н/о н/о +10.7 +7 +7 995.0 990.3
16 25.06 С 14
{18}
н/о н/о +11.2 +8 +8 993.8 989.1
18 25.06 С 10
{18}
н/о н/о +10.7 +8 +8 995.9 991.2 +10.1 +13.2
19 25.06 С 8
{11}
н/о н/о +10.5 +8 +8 996.5 991.8
20 25.06 С 8
{9}
н/о н/о +10.3 +8 +8 996.8 992.0
21 25.06 СЗ 9
{11}
н/о н/о +10.5 +8 +8 997.0 992.3
23 25.06 С 11
{13}
н/о н/о +10.3 +7 +7 998.4 993.6
22 25.06 С 11
{13}
н/о н/о +10.5 +7 +7 997.6 992.8
00 26.06 С 13
{15}
н/о н/о +10.2 +6 +6 998.5 993.7
01 26.06 С 17
{19}
н/о н/о +9.3 +5 +5 998.5 993.7
02 26.06 С 17
{21}
н/о н/о +9.4 +5 +5 999.5 994.7
03 26.06 С 15
{20}
н/о н/о +9.7 +5 +5 1000.5 995.7
05 26.06 С 11
{15}
н/о н/о +9.5 +6 +6 1002.3 997.5
04 26.06 С 13
{17}
н/о н/о +9.6 +6 +6 1001.2 996.4
06 26.06 С 11
{21}
н/о н/о +9.3 +6 +6 1002.7 997.9 +8.9 +10.9
07 26.06 С 9
{16}
н/о н/о +9.4 +6 +6 1003.4 998.6
08 26.06 С 11
{16}
н/о н/о +9.2 +5 +5 1004.2 999.4
09 26.06 С 11
{16}
н/о н/о +9.3 +6 +6 1004.9 1000.1
11 26.06 С 12
{16}
н/о н/о +9.8 +6 +6 1006.3 1001.5
10 26.06 С 11
{16}
н/о н/о +9.4 +6 +6 1005.7 1000.9
12 26.06 С 12
{16}
н/о н/о +10.3 +7 +7 1007.0 1002.2
13 26.06 С 10
{13}
н/о н/о +10.4 +7 +7 1007.8 1003.0
14 26.06 С 10
{13}
н/о н/о +10.4 +7 +7 1008.3 1003.5
15 26.06 С 10
{12}
н/о н/о +10.2 +7 +7 1009.0 1004.2
17 26.06 С 10
{12}
н/о н/о +9.9 +7 +7 1009.6 1004.8
16 26.06 С 10
{12}
н/о н/о +10.3 +7 +7 1009.3 1004.5
18 26.06 С 10
{13}
н/о н/о +9.5 +6 +6 1010.0 1005.2 +8.0 +10.8
19 26.06 СЗ 7
{12}
н/о н/о +10.0 +7 +7 1010.6 1005.8
20 26.06 С 8
{12}
н/о н/о +8.5 +5 +5 1010.8 1006.0
21 26.06 СЗ 7
{11}
н/о н/о +8.8 +6 +6 1011.2 1006.4
23 26.06
{11}
н/о н/о +8.4 1011.9 1007.0
22 26.06 С 4
{9}
н/о н/о +8.4 +7 +7 1011.7 1006.8
00 27.06 СЗ 5
{12}
н/о н/о +8.5 +6 +6 1012.3 1007.4
01 27.06 С 3
{9}
н/о н/о +7.6 +6 +6 1012.5 1007.6
02 27.06 В 2
{4}
н/о н/о +8.1 +7 +7 1012.7 1007.8
03 27.06 С 5
{7}
н/о н/о +8.4 +6 +6 1012.9 1008.0
05 27.06 С 4
{6}
н/о н/о +9.0 +7 +7 1013.2 1008.3
04 27.06 СВ 3
{10}
н/о н/о +8.1 +7 +7 1013.1 1008.2
06 27.06 С 2
{10}
н/о н/о +8.9 +8 +8 1013.5 1008.6 +7.5 +10.2
07 27.06 В 5
{6}
н/о н/о +8.4 +6 +6 1013.8 1008.9
08 27.06 В 2
{5}
н/о н/о +9.3 +9 +9 1014.2 1009.3
09 27.06 С 2
{3}
н/о н/о +12.1 +12 +12 1014.5 1009.7
11 27.06 С 5
{6}
н/о н/о +11.4 +10 +10 1014.5 1009.7
10 27.06 СВ 3
{7}
н/о н/о +10.5 +10 +10 1014.4 1009.6
12 27.06 С 6
{8}
н/о н/о +11.3 +9 +9 1014.5 1009.7
13 27.06 С 8
{9}
н/о н/о +11.1 +9 +9 1014.2 1009.4
14 27.06 С 9
{10}
н/о н/о +10.8 +8 +8 1014.1 1009.3
15 27.06
{11}
н/о н/о +10.4 1013.8 1009.0
16 27.06
{13}
н/о н/о +10.4 1013.3 1008.5

 

Местоположение метеостанции Krakenes (Норвегия): широта 62.03 долгота 4.99 высота над уровнем моря 75 м.

В архиве по умолчанию представлена погода в Krakenes за последнюю неделю. Архивные данные за месяц целиком и за предыдущие месяцы, начиная с января 2011 года, Вы можете получить, выбрав интересующий диапазон дат из раскрывающегося списка и нажав кнопку "Ввод!".

Внимание! Время в таблицах - всемирное. Для получения местного времени необходимо прибавить поправку, которая в Krakenes равна 1 ч.

Смотрите также архив погоды в соседних городах и на ближайших метеорологических станциях:

Погода в Bergen Lufthavn (Норвегия) (31 км)
Погода в Fiskabygd (Норвегия) (32 км)
Погода в Svinoy Fyr (Норвегия) (36 км)
Погода в Floro Lifthavn (Норвегия) (50 км)
Погода в Ytteroyane Fyr (Норвегия) (54 км)
Погода в Orsta-Volda Lufthavn (Норвегия) (59 км)
Погода в Sandane Lufthavn (Норвегия) (62 км)
Погода в Forde Tefre (Норвегия) (79 км)
Погода в Alesund IV (Норвегия) (80 км)
Погода в Forde Lifthavn (Норвегия) (82 км)

Пояснения к столбцам:

Ветер - указаны скорость ветра в м/с - средняя за 10 мин, порывы в срок и между сроками (в фигурных скобках) и направление, откуда дует ветер: С - северный, СВ - северо-восточный, В - восточный, ЮВ - юго-восточный, Ю - южный, ЮЗ - юго-западный, З - западный, СЗ - северо-западный.
Видимость - горизонтальная дальность видимости в метрах или километрах. При видимости от 1 до 10 км при отсутствии осадков обычно наблюдается дымка, при ухудшении видимости до 1 км и менее - туман. В сухую погоду видимость может ухудшаться дымом, пылью или мглою.
Явления - указаны атмосферные явления, наблюдавшиеся в срок или в последний час перед сроком; фигурными скобками обозначены явления, наблюдавшиеся между сроками (за 1-3 часа до срока); квадратными скобками обозначены град или гололедные отложения с указанием их диаметра в мм.
Облачность - указаны через наклонную черту общая и нижняя облачность в баллах и высота нижней границы облаков в метрах; квадратными скобками обозначены формы облаков: Ci - перистые, Cs - перисто-слоистые, Cc - перисто-кучевые, Ac - высококучевые, As - высокослоистые, Sc - слоисто-кучевые, Ns - слоисто-дождевые, Cu - кучевые, Cb - кучево-дождевые. Подробнее классификацию облаков см. в Атласе облаков (PDF).
T - Температура воздуха - температура, измеренная на высоте 2 м над землей.
Td - Температура точки росы - температура, при понижении до которой содержащийся в воздухе водяной пар достигнет насыщения.
f - Относительная влажность воздуха - влажноcть воздуха, измеренная на высоте 2 м над землей.
Te - Эффективная температура - температура, которую ощущает одетый по сезону человек в тени. Характеристика душности погоды. При расчете учитывается влияние влажности воздуха и скорости ветра на теплоощущения человека.
Tes - Эффективная температура на солнце - температура, которую ощущает человек, с поправкой на солнечный нагрев. Характеристика знойности погоды. Зависит от высоты солнца над горизонтом, облачности и скорости ветра. Ночью, в пасмурную погоду, а также при ветре 12 м/с и более поправка равна нулю.
P - Атмосферное давление - приведенное к уровню моря атмосферное давление.
Po - Атмосферное давление - измеренное на уровне метеостанции атмосферное давление.
Tmin - Минимальная температура - минимум температуры воздуха на высоте 2 м над землей.
Tmax - Максимальная температура - максимум температуры воздуха на высоте 2 м над землей.
R - Количество осадков - Количество выпавших осадков за период времени, мм. При наведении курсора мыши на число - период времени, за который выпало указанное количество осадков.
R24 - Количество осадков - Количество выпавших осадков за 24 часа, мм.
S - Снежный покров - Высота снежного покрова, см. При наведении курсора мыши на число - состояние снежного покрова и степень покрытия местности в баллах.